{"data":{"norad_id":68310,"intl_designator":"2026-057S","name":"STARLINK-37148","alt_names":[],"object_type":"PAYLOAD","status":"ACTIVE","operator":null,"country":"US","launch_date":"2026-03-20","launch_site_code":"AFWTR","launch_vehicle":null,"mission":null,"orbit_class":"UNKNOWN","rcs_meters":null,"size_class":null,"mass_kg":null,"dimensions":null,"purposes":["comms"],"wikipedia_slug":null,"has_3d_model":false,"image_url":null,"decayed_at":null,"tle_current":{"epoch":"2026-05-24T20:28:42.537504Z","epoch_age_seconds":91254,"freshness":"FRESH","line1":"1 68310U 26057S   26144.85327011  .00146347  00000+0  96557-3 0  9991","line2":"2 68310  97.2852 271.0652 0002832  72.7145 287.4430 15.75181110 10275","mean_motion":15.7518111,"eccentricity":0.0002832,"inclination_deg":97.2852,"raan_deg":271.0652,"arg_perigee_deg":72.7145,"mean_anomaly_deg":287.443,"bstar":0.00096557,"rev_number":1027,"period_min":91.418059222409,"perigee_km":342.21211923655,"apogee_km":346.01960325716,"semimajor_km":6722.2528612469,"source":"CELESTRAK","updated_at":"2026-05-25T13:38:21.918959Z"}}}